Regional Weather Roundup
Issued by NWS

Home | Current Version | Previous Version | Text Only | Print | Product List | Glossary On
Versions: 1 2 3 4 5 6 7 8 9 10 11 12 13 14 15 16 17 18 19 20 21 22 23 24 25 26 27 28 29 30 31 32 33 34 35 36 37 38 39 40 41 42 43 44 45 46 47 48 49 50
000
ASUS45 KPSR 250110
RWRAZ

ARIZONA REGIONAL HOURLY WEATHER ROUNDUP
NATIONAL WEATHER SERVICE PHOENIX AZ
600 PM MST FRI OCT 24 2014

NOTE: FAIR INDICATES FEW OR NO CLOUDS BELOW 12,000 FEET WITH NO
SIGNIFICANT WEATHER AND/OR OBSTRUCTIONS TO VISIBILITY.

AZZ001>003-036-250200-
NORTHWEST ARIZONA

CITY           SKY/WX    TMP DP  RH WIND       PRES   REMARKS
BULLHEAD CITY  CLEAR     90  37  15 CALM      29.92S
KINGMAN        CLEAR     72  37  28 SW7       30.09S
$$

AZZ004>008-015-016-018-250200-
NORTH CENTRAL ARIZONA

CITY           SKY/WX    TMP DP  RH WIND       PRES   REMARKS
GRAND CANYON   CLEAR     56  22  26 CALM      30.31R
PRESCOTT       CLEAR     73  36  25 SE8       30.20S
FLAGSTAFF      PTCLDY    58  30  34 CALM      30.34S
PAYSON         FAIR      68  43  40 S3        30.24S
PAGE           CLEAR     69  37  30 CALM      30.15S
$$

AZZ009>014-017-250200-
NORTHEAST ARIZONA

CITY           SKY/WX    TMP DP  RH WIND       PRES   REMARKS
WINSLOW        CLEAR     74  35  24 E3        30.18S
SAINT JOHNS    CLEAR     68  38  33 CALM      30.24R
WINDOW ROCK    CLEAR     66  27  23 E5        30.32R
SHOW LOW       CLEAR     63  32  31 S5        30.33R
$$

AZZ023-250200-
GREATER PHOENIX AREA

CITY           SKY/WX    TMP DP  RH WIND       PRES   REMARKS
PHOENIX        CLEAR     92  44  19 E5        29.93S
BUCKEYE          N/A     84  48  28 E3        29.94S
GLENDALE       CLEAR     91  46  21 CALM      29.95S
LUKE AFB       CLEAR     88  54  31 NW2       29.94R
DEER VALLEY    CLEAR     88  45  22 CALM      29.96S
SCOTTSDALE     CLEAR     89  47  23 CALM      29.98S
MESA-FALCON    CLEAR     88  46  23 VRB6      29.95S
MESA-GATEWAY   CLEAR     88  48  25 CALM      29.98S
$$

AZZ027-028-250200-
SOUTHWEST MARICOPA COUNTY AND PINAL COUNTY

CITY           SKY/WX    TMP DP  RH WIND       PRES   REMARKS
CASA GRANDE    CLEAR     88  46  23 CALM      29.97S
$$

AZZ503-504-507>509-250200-
SOUTHEAST ARIZONA

CITY           SKY/WX    TMP DP  RH WIND       PRES   REMARKS
TUCSON         CLEAR     85  47  26 W5        30.05R
DAVIS-MONTHAN  CLEAR     85  45  24 NE5       30.03R
RYAN FIELD       N/A     84  48  28 NW7       30.04R
NOGALES        CLEAR     78  46  32 W6        30.14R
SIERRA VISTA   CLEAR     73  45  35 SW8       30.19R
DOUGLAS        CLEAR     74  43  32 E7        30.15R
SAFFORD        CLEAR     80  46  30 CALM      30.07S
$$

AZZ020-021-025-026-031-250200-
SOUTHWEST ARIZONA

CITY           SKY/WX    TMP DP  RH WIND       PRES   REMARKS
YUMA           CLEAR     92  43  18 S7        29.87S
$$

CAZ031-033-041-043-047-048-061-250200-
SOUTHERN CALIFORNIA

CITY           SKY/WX    TMP DP  RH WIND       PRES   REMARKS
DOWNTOWN L.A.  CLEAR     78  60  53 CALM      29.92R
L.A. AIRPORT   CLEAR     71  64  78 W7        29.93S
SAN DIEGO      CLEAR     77  56  48 NW3       29.94R
BURBANK        CLEAR     82  41  23 S6        29.93S
ONTARIO        CLEAR     84  25  11 W10       29.94S
RIVERSIDE      CLEAR     84  30  14 W7        29.93R
PALM SPRINGS   PTCLDY    90  46  21 E5        29.91R
EL CENTRO NAS  CLEAR     90  45  21 NE3       29.85S
IMPERIAL       CLEAR     93  44  18 CALM      29.85S
BLYTHE         CLEAR     92  46  20 SE3       29.88S
NEEDLES        CLEAR     91  37  15 SW7       29.92S
$$

NVZ020-UTZ003-250200-
SOUTHERN NEVADA-UTAH

CITY           SKY/WX    TMP DP  RH WIND       PRES   REMARKS
LAS VEGAS      FAIR      84  38  19 CALM      29.94F
SALT LAKE CITY CLEAR     65  40  39 W5        30.08F
$$

NMZ009-TXZ055-250200-
NEW MEXICO-WEST TEXAS

CITY           SKY/WX    TMP DP  RH WIND       PRES   REMARKS
ALBUQUERQUE    CLEAR     71  34  25 SE3       30.23S
EL PASO        CLEAR     75  46  35 E5        30.16R
$$


........................KEY........................
SKY/WX - SKY CONDITION/WEATHER
TMP    - TEMPERATURE IN FAHRENHEIT
DP     - DEW POINT IN FAHRENHEIT
RH     - RELATIVE HUMIDITY IN PERCENT
WIND   - DIRECTION AND SPEED IN MILES PER HOUR (MPH)
VRB    - VARIABLE WIND DIRECTION
PRES   - MEAN SEA LEVEL PRESSURE IN INCHES OF MERCURY
         F - FALLING PRESSURE   R - RISING PRESSURE
         S - STEADY PRESSURE
VSB    - VISIBILITY IN MILES
HX     - HEAT INDEX IN FAHRENHEIT
WCI    - WIND CHILL INDEX IN FAHRENHEIT
TC     - TEMPERATURE IN CELSIUS WHICH IS ALSO KNOWN AS
         TEMPERATURE IN CENTIGRADE
AFB    - AIR FORCE BASE
         LUKE AFB IS LUKE AIR FORCE BASE
         DAVIS-MONTHAN IS DAVIS-MONTHAN AIR FORCE BASE
NAS    - NAVAL AIR STATION
         EL CENTRO NAS IS EL CENTRO NAVAL AIR STATION
N/A    - NOT AVAILABLE



USA.gov is the U.S. government's official web portal to all federal, state and local government web resources and services.